Year,Month,Day,Hour,Minute,Value (Times are PST for barometer in hPa)
2016,03,13,00,00,1002.54
2016,03,13,00,01,1002.51
2016,03,13,00,02,1002.51
2016,03,13,00,03,1002.51
2016,03,13,00,04,1002.50
2016,03,13,00,05,1002.41
2016,03,13,00,06,1002.37
2016,03,13,00,07,1002.37
2016,03,13,00,08,1002.34
2016,03,13,00,09,1002.37
2016,03,13,00,10,1002.36
2016,03,13,00,11,1002.30
2016,03,13,00,12,1002.30
2016,03,13,00,13,1002.26
2016,03,13,00,14,1002.20
2016,03,13,00,15,1002.20
2016,03,13,00,16,1002.20
2016,03,13,00,17,1002.20
2016,03,13,00,18,1002.17
2016,03,13,00,19,1002.27
2016,03,13,00,20,1002.27
2016,03,13,00,21,1002.30
2016,03,13,00,22,1002.35
2016,03,13,00,23,1002.41
2016,03,13,00,24,1002.44
2016,03,13,00,25,1002.44
2016,03,13,00,26,1002.44
2016,03,13,00,27,1002.44
2016,03,13,00,28,1002.41
2016,03,13,00,29,1002.41
2016,03,13,00,30,1002.44
2016,03,13,00,31,1002.44
2016,03,13,00,32,1002.47
2016,03,13,00,33,1002.44
2016,03,13,00,34,1002.41
2016,03,13,00,35,1002.41
2016,03,13,00,36,1002.37
2016,03,13,00,37,1002.34
2016,03,13,00,38,1002.34
2016,03,13,00,39,1002.30
2016,03,13,00,40,1002.29
2016,03,13,00,41,1002.24
2016,03,13,00,42,1002.27
2016,03,13,00,43,1002.25
2016,03,13,00,44,1002.30
2016,03,13,00,45,1002.27
2016,03,13,00,46,1002.24
2016,03,13,00,47,1002.24
2016,03,13,00,48,1002.27
2016,03,13,00,49,1002.26
2016,03,13,00,50,1002.20
2016,03,13,00,51,1002.17
2016,03,13,00,52,1002.17
2016,03,13,00,53,1002.17
2016,03,13,00,54,1002.17
2016,03,13,00,55,1002.17
2016,03,13,00,56,1002.17
2016,03,13,00,57,1002.14
2016,03,13,00,58,1002.19
2016,03,13,00,59,1002.13
2016,03,13,01,00,1002.20
2016,03,13,01,01,1002.13
2016,03,13,01,02,1002.17
2016,03,13,01,03,1002.17
2016,03,13,01,04,1002.13
2016,03,13,01,05,1002.17
2016,03,13,01,06,1002.13
2016,03,13,01,07,1002.07
2016,03,13,01,08,1002.03
2016,03,13,01,09,1002.07
2016,03,13,01,10,1002.10
2016,03,13,01,11,1002.07
2016,03,13,01,12,1002.10
2016,03,13,01,13,1002.07
2016,03,13,01,14,1002.10
2016,03,13,01,15,1002.07
2016,03,13,01,16,1002.07
2016,03,13,01,17,1002.03
2016,03,13,01,18,1001.98
2016,03,13,01,19,1002.03
2016,03,13,01,20,1002.00
2016,03,13,01,21,1002.03
2016,03,13,01,22,1002.03
2016,03,13,01,23,1002.03
2016,03,13,01,24,1002.00
2016,03,13,01,25,1002.03
2016,03,13,01,26,1002.03
2016,03,13,01,27,1002.00
2016,03,13,01,28,1002.00
2016,03,13,01,29,1002.00
2016,03,13,01,30,1001.93
2016,03,13,01,31,1001.93
2016,03,13,01,32,1001.90
2016,03,13,01,33,1001.90
2016,03,13,01,34,1001.86
2016,03,13,01,35,1001.86
2016,03,13,01,36,1001.83
2016,03,13,01,37,1001.83
2016,03,13,01,38,1001.86
2016,03,13,01,39,1001.80
2016,03,13,01,40,1001.83
2016,03,13,01,41,1001.80
2016,03,13,01,42,1001.80
2016,03,13,01,43,1001.76
2016,03,13,01,44,1001.76
2016,03,13,01,45,1001.76
2016,03,13,01,46,1001.76
2016,03,13,01,47,1001.73
2016,03,13,01,48,1001.73
2016,03,13,01,49,1001.69
2016,03,13,01,50,1001.66
2016,03,13,01,51,1001.63
2016,03,13,01,52,1001.63
2016,03,13,01,53,1001.59
2016,03,13,01,54,1001.59
2016,03,13,01,55,1001.59
2016,03,13,01,56,1001.59
2016,03,13,01,57,1001.56
2016,03,13,01,58,1001.52
2016,03,13,01,59,1001.46
2016,03,13,03,00,1001.52
2016,03,13,03,01,1001.49
2016,03,13,03,02,1001.42
2016,03,13,03,03,1001.42
2016,03,13,03,04,1001.46
2016,03,13,03,05,1001.46
2016,03,13,03,06,1001.39
2016,03,13,03,07,1001.42
2016,03,13,03,08,1001.36
2016,03,13,03,09,1001.32
2016,03,13,03,10,1001.32
2016,03,13,03,11,1001.25
2016,03,13,03,12,1001.22
2016,03,13,03,13,1001.22
2016,03,13,03,14,1001.22
2016,03,13,03,15,1001.19
2016,03,13,03,16,1001.22
2016,03,13,03,17,1001.18
2016,03,13,03,18,1001.08
2016,03,13,03,19,1001.08
2016,03,13,03,20,1001.08
2016,03,13,03,21,1001.07
2016,03,13,03,22,1001.02
2016,03,13,03,23,1000.98
2016,03,13,03,24,1000.98
2016,03,13,03,25,1000.98
2016,03,13,03,26,1000.98
2016,03,13,03,27,1000.98
2016,03,13,03,28,1000.95
2016,03,13,03,29,1000.95
2016,03,13,03,30,1000.95
2016,03,13,03,31,1000.92
2016,03,13,03,32,1000.92
2016,03,13,03,33,1000.92
2016,03,13,03,34,1000.92
2016,03,13,03,35,1000.88
2016,03,13,03,36,1000.85
2016,03,13,03,37,1000.85
2016,03,13,03,38,1000.85
2016,03,13,03,39,1000.85
2016,03,13,03,40,1000.85
2016,03,13,03,41,1000.81
2016,03,13,03,42,1000.85
2016,03,13,03,43,1000.84
2016,03,13,03,44,1000.78
2016,03,13,03,45,1000.78
2016,03,13,03,46,1000.85
2016,03,13,03,47,1000.88
2016,03,13,03,48,1000.81
2016,03,13,03,49,1000.85
2016,03,13,03,50,1000.78
2016,03,13,03,51,1000.75
2016,03,13,03,52,1000.78
2016,03,13,03,53,1000.71
2016,03,13,03,54,1000.75
2016,03,13,03,55,1000.75
2016,03,13,03,56,1000.78
2016,03,13,03,57,1000.75
2016,03,13,03,58,1000.71
2016,03,13,03,59,1000.68
2016,03,13,04,00,1000.61
2016,03,13,04,01,1000.61
2016,03,13,04,02,1000.64
2016,03,13,04,03,1000.58
2016,03,13,04,04,1000.54
2016,03,13,04,05,1000.54
2016,03,13,04,06,1000.51
2016,03,13,04,07,1000.47
2016,03,13,04,08,1000.41
2016,03,13,04,09,1000.48
2016,03,13,04,10,1000.48
2016,03,13,04,11,1000.44
2016,03,13,04,12,1000.44
2016,03,13,04,13,1000.34
2016,03,13,04,14,1000.37
2016,03,13,04,15,1000.41
2016,03,13,04,16,1000.34
2016,03,13,04,17,1000.41
2016,03,13,04,18,1000.37
2016,03,13,04,19,1000.33
2016,03,13,04,20,1000.24
2016,03,13,04,21,1000.27
2016,03,13,04,22,1000.21
2016,03,13,04,23,1000.27
2016,03,13,04,24,1000.24
2016,03,13,04,25,1000.26
2016,03,13,04,26,1000.15
2016,03,13,04,27,1000.20
2016,03,13,04,28,1000.14
2016,03,13,04,29,1000.17
2016,03,13,04,30,1000.15
2016,03,13,04,31,1000.24
2016,03,13,04,32,1000.13
2016,03,13,04,33,1000.07
2016,03,13,04,34,1000.10
2016,03,13,04,35,1000.10
2016,03,13,04,36,1000.07
2016,03,13,04,37,1000.10
2016,03,13,04,38,1000.07
2016,03,13,04,39,1000.10
2016,03,13,04,40,1000.03
2016,03,13,04,41,1000.00
2016,03,13,04,42,1000.03
2016,03,13,04,43,999.97
2016,03,13,04,44,1000.00
2016,03,13,04,45,999.97
2016,03,13,04,46,1000.00
2016,03,13,04,47,999.93
2016,03,13,04,48,999.97
2016,03,13,04,49,999.94
2016,03,13,04,50,1000.00
2016,03,13,04,51,999.97
2016,03,13,04,52,1000.00
2016,03,13,04,53,999.97
2016,03,13,04,54,1000.00
2016,03,13,04,55,999.90
2016,03,13,04,56,999.93
2016,03,13,04,57,999.90
2016,03,13,04,58,999.83
2016,03,13,04,59,999.82
2016,03,13,05,00,999.73
2016,03,13,05,01,999.70
2016,03,13,05,02,999.76
2016,03,13,05,03,999.70
2016,03,13,05,04,999.73
2016,03,13,05,05,999.66
2016,03,13,05,06,999.70
2016,03,13,05,07,999.73
2016,03,13,05,08,999.70
2016,03,13,05,09,999.73
2016,03,13,05,10,999.66
2016,03,13,05,11,999.63
2016,03,13,05,12,999.69
2016,03,13,05,13,999.56
2016,03,13,05,14,999.56
2016,03,13,05,15,999.53
2016,03,13,05,16,999.49
2016,03,13,05,17,999.56
2016,03,13,05,18,999.55
2016,03,13,05,19,999.50
2016,03,13,05,20,999.59
2016,03,13,05,21,999.56
2016,03,13,05,22,999.59
2016,03,13,05,23,999.53
2016,03,13,05,24,999.53
2016,03,13,05,25,999.42
2016,03,13,05,26,999.38
2016,03,13,05,27,999.55
2016,03,13,05,28,999.36
2016,03,13,05,29,999.36
2016,03,13,05,30,999.32
2016,03,13,05,31,999.32
2016,03,13,05,32,999.29
2016,03,13,05,33,999.22
2016,03,13,05,34,999.32
2016,03,13,05,35,999.35
2016,03,13,05,36,999.29
2016,03,13,05,37,999.26
2016,03,13,05,38,999.35
2016,03,13,05,39,999.29
2016,03,13,05,40,999.20
2016,03,13,05,41,999.31
2016,03,13,05,42,999.19
2016,03,13,05,43,999.09
2016,03,13,05,44,999.15
2016,03,13,05,45,999.18
2016,03,13,05,46,999.02
2016,03,13,05,47,999.05
2016,03,13,05,48,999.12
2016,03,13,05,49,999.09
2016,03,13,05,50,999.04
2016,03,13,05,51,998.99
2016,03,13,05,52,998.99
2016,03,13,05,53,999.05
2016,03,13,05,54,999.11
2016,03,13,05,55,998.86
2016,03,13,05,56,998.95
2016,03,13,05,57,998.99
2016,03,13,05,58,999.04
2016,03,13,05,59,998.99
2016,03,13,06,00,999.02
2016,03,13,06,01,998.99
2016,03,13,06,02,998.99
2016,03,13,06,03,999.02
2016,03,13,06,04,998.92
2016,03,13,06,05,998.88
2016,03,13,06,06,998.93
2016,03,13,06,07,999.01
2016,03,13,06,08,998.88
2016,03,13,06,09,998.82
2016,03,13,06,10,998.85
2016,03,13,06,11,998.85
2016,03,13,06,12,998.78
2016,03,13,06,13,998.87
2016,03,13,06,14,998.69
2016,03,13,06,15,998.82
2016,03,13,06,16,998.75
2016,03,13,06,17,998.75
2016,03,13,06,18,998.67
2016,03,13,06,19,998.61
2016,03,13,06,20,998.71
2016,03,13,06,21,998.64
2016,03,13,06,22,998.48
2016,03,13,06,23,998.42
2016,03,13,06,24,998.50
2016,03,13,06,25,998.44
2016,03,13,06,26,998.48
2016,03,13,06,27,998.45
2016,03,13,06,28,998.51
2016,03,13,06,29,998.51
2016,03,13,06,30,998.41
2016,03,13,06,31,998.31
2016,03,13,06,32,998.33
2016,03,13,06,33,998.21
2016,03,13,06,34,998.14
2016,03,13,06,35,998.21
2016,03,13,06,36,998.14
2016,03,13,06,37,998.14
2016,03,13,06,38,998.14
2016,03,13,06,39,998.10
2016,03,13,06,40,998.07
2016,03,13,06,41,998.04
2016,03,13,06,42,998.04
2016,03,13,06,43,998.04
2016,03,13,06,44,998.04
2016,03,13,06,45,998.00
2016,03,13,06,46,998.09
2016,03,13,06,47,997.94
2016,03,13,06,48,997.96
2016,03,13,06,49,997.83
2016,03,13,06,50,997.83
2016,03,13,06,51,997.80
2016,03,13,06,52,997.77
2016,03,13,06,53,997.77
2016,03,13,06,54,997.72
2016,03,13,06,55,997.60
2016,03,13,06,56,997.66
2016,03,13,06,57,997.62
2016,03,13,06,58,997.50
2016,03,13,06,59,997.46
2016,03,13,07,00,997.39
2016,03,13,07,01,997.43
2016,03,13,07,02,997.33
2016,03,13,07,03,997.30
2016,03,13,07,04,997.42
2016,03,13,07,05,997.29
2016,03,13,07,06,997.19
2016,03,13,07,07,997.09
2016,03,13,07,08,997.09
2016,03,13,07,09,996.99
2016,03,13,07,10,997.02
2016,03,13,07,11,996.95
2016,03,13,07,12,996.95
2016,03,13,07,13,996.92
2016,03,13,07,14,996.95
2016,03,13,07,15,996.95
2016,03,13,07,16,996.89
2016,03,13,07,17,996.82
2016,03,13,07,18,996.85
2016,03,13,07,19,996.82
2016,03,13,07,20,996.78
2016,03,13,07,21,996.68
2016,03,13,07,22,996.65
2016,03,13,07,23,996.56
2016,03,13,07,24,996.67
2016,03,13,07,25,996.55
2016,03,13,07,26,996.55
2016,03,13,07,27,996.45
2016,03,13,07,28,996.54
2016,03,13,07,29,996.38
2016,03,13,07,30,996.41
2016,03,13,07,31,996.33
2016,03,13,07,32,996.21
2016,03,13,07,33,996.31
2016,03,13,07,34,996.23
2016,03,13,07,35,996.14
2016,03,13,07,36,996.25
2016,03,13,07,37,996.31
2016,03,13,07,38,996.28
2016,03,13,07,39,996.31
2016,03,13,07,40,996.34
2016,03,13,07,41,996.31
2016,03,13,07,42,996.31
2016,03,13,07,43,996.28
2016,03,13,07,44,996.17
2016,03,13,07,45,996.11
2016,03,13,07,46,996.11
2016,03,13,07,47,996.11
2016,03,13,07,48,996.04
2016,03,13,07,49,995.97
2016,03,13,07,50,995.94
2016,03,13,07,51,995.90
2016,03,13,07,52,995.94
2016,03,13,07,53,995.93
2016,03,13,07,54,995.84
2016,03,13,07,55,995.80
2016,03,13,07,56,995.80
2016,03,13,07,57,995.83
2016,03,13,07,58,995.70
2016,03,13,07,59,995.63
2016,03,13,08,00,995.56
2016,03,13,08,01,995.53
2016,03,13,08,02,995.50
2016,03,13,08,03,995.56
2016,03,13,08,04,995.59
2016,03,13,08,05,995.43
2016,03,13,08,06,995.46
2016,03,13,08,07,995.42
2016,03,13,08,08,995.29
2016,03,13,08,09,995.18
2016,03,13,08,10,995.09
2016,03,13,08,11,995.09
2016,03,13,08,12,994.99
2016,03,13,08,13,995.06
2016,03,13,08,14,995.06
2016,03,13,08,15,995.06
2016,03,13,08,16,994.98
2016,03,13,08,17,994.92
2016,03,13,08,18,994.82
2016,03,13,08,19,994.82
2016,03,13,08,20,994.79
2016,03,13,08,21,994.72
2016,03,13,08,22,994.68
2016,03,13,08,23,994.72
2016,03,13,08,24,994.79
2016,03,13,08,25,994.75
2016,03,13,08,26,994.68
2016,03,13,08,27,994.72
2016,03,13,08,28,994.71
2016,03,13,08,29,994.59
2016,03,13,08,30,994.68
2016,03,13,08,31,994.58
2016,03,13,08,32,994.62
2016,03,13,08,33,994.58
2016,03,13,08,34,994.55
2016,03,13,08,35,994.58
2016,03,13,08,36,994.48
2016,03,13,08,37,994.52
2016,03,13,08,38,994.51
2016,03,13,08,39,994.38
2016,03,13,08,40,994.38
2016,03,13,08,41,994.35
2016,03,13,08,42,994.35
2016,03,13,08,43,994.31
2016,03,13,08,44,994.28
2016,03,13,08,45,994.21
2016,03,13,08,46,994.21
2016,03,13,08,47,994.21
2016,03,13,08,48,994.14
2016,03,13,08,49,994.14
2016,03,13,08,50,994.14
2016,03,13,08,51,994.07
2016,03,13,08,52,993.97
2016,03,13,08,53,993.97
2016,03,13,08,54,993.94
2016,03,13,08,55,993.86
2016,03,13,08,56,993.74
2016,03,13,08,57,993.80
2016,03,13,08,58,993.76
2016,03,13,08,59,993.60
2016,03,13,09,00,993.63
2016,03,13,09,01,993.63
2016,03,13,09,02,993.57
2016,03,13,09,03,993.57
2016,03,13,09,04,993.57
2016,03,13,09,05,993.57
2016,03,13,09,06,993.47
2016,03,13,09,07,993.46
2016,03,13,09,08,993.33
2016,03,13,09,09,993.33
2016,03,13,09,10,993.30
2016,03,13,09,11,993.33
2016,03,13,09,12,993.26
2016,03,13,09,13,993.16
2016,03,13,09,14,993.06
2016,03,13,09,15,993.06
2016,03,13,09,16,993.09
2016,03,13,09,17,992.99
2016,03,13,09,18,993.03
2016,03,13,09,19,992.96
2016,03,13,09,20,992.86
2016,03,13,09,21,992.86
2016,03,13,09,22,992.79
2016,03,13,09,23,992.72
2016,03,13,09,24,992.75
2016,03,13,09,25,992.69
2016,03,13,09,26,992.68
2016,03,13,09,27,992.52
2016,03,13,09,28,992.48
2016,03,13,09,29,992.47
2016,03,13,09,30,992.35
2016,03,13,09,31,992.35
2016,03,13,09,32,992.28
2016,03,13,09,33,992.31
2016,03,13,09,34,992.28
2016,03,13,09,35,992.17
2016,03,13,09,36,992.08
2016,03,13,09,37,992.07
2016,03,13,09,38,991.94
2016,03,13,09,39,991.87
2016,03,13,09,40,991.87
2016,03,13,09,41,991.92
2016,03,13,09,42,991.60
2016,03,13,09,43,991.59
2016,03,13,09,44,991.40
2016,03,13,09,45,991.40
2016,03,13,09,46,991.30
2016,03,13,09,47,991.23
2016,03,13,09,48,991.30
2016,03,13,09,49,991.26
2016,03,13,09,50,991.33
2016,03,13,09,51,991.32
2016,03,13,09,52,991.16
2016,03,13,09,53,991.16
2016,03,13,09,54,991.16
2016,03,13,09,55,991.16
2016,03,13,09,56,991.13
2016,03,13,09,57,991.13
2016,03,13,09,58,991.16
2016,03,13,09,59,991.13
2016,03,13,10,00,991.09
2016,03,13,10,01,991.13
2016,03,13,10,02,991.09
2016,03,13,10,03,991.06
2016,03,13,10,04,991.03
2016,03,13,10,05,991.09
2016,03,13,10,06,991.03
2016,03,13,10,07,990.93
2016,03,13,10,08,990.93
2016,03,13,10,09,990.86
2016,03,13,10,10,990.89
2016,03,13,10,11,990.89
2016,03,13,10,12,990.93
2016,03,13,10,13,990.89
2016,03,13,10,14,990.82
2016,03,13,10,15,990.79
2016,03,13,10,16,990.82
2016,03,13,10,17,990.76
2016,03,13,10,18,990.72
2016,03,13,10,19,990.69
2016,03,13,10,20,990.69
2016,03,13,10,21,990.65
2016,03,13,10,22,990.65
2016,03,13,10,23,990.65
2016,03,13,10,24,990.64
2016,03,13,10,25,990.49
2016,03,13,10,26,990.52
2016,03,13,10,27,990.55
2016,03,13,10,28,990.49
2016,03,13,10,29,990.42
2016,03,13,10,30,990.49
2016,03,13,10,31,990.49
2016,03,13,10,32,990.49
2016,03,13,10,33,990.49
2016,03,13,10,34,990.45
2016,03,13,10,35,990.41
2016,03,13,10,36,990.28
2016,03,13,10,37,990.38
2016,03,13,10,38,990.35
2016,03,13,10,39,990.42
2016,03,13,10,40,990.35
2016,03,13,10,41,990.42
2016,03,13,10,42,990.38
2016,03,13,10,43,990.35
2016,03,13,10,44,990.48
2016,03,13,10,45,990.38
2016,03,13,10,46,990.35
2016,03,13,10,47,990.28
2016,03,13,10,48,990.25
2016,03,13,10,49,990.32
2016,03,13,10,50,990.32
2016,03,13,10,51,990.28
2016,03,13,10,52,990.32
2016,03,13,10,53,990.25
2016,03,13,10,54,990.25
2016,03,13,10,55,990.25
2016,03,13,10,56,990.32
2016,03,13,10,57,990.21
2016,03,13,10,58,990.18
2016,03,13,10,59,990.18
2016,03,13,11,00,990.11
2016,03,13,11,01,990.08
2016,03,13,11,02,990.08
2016,03,13,11,03,990.01
2016,03,13,11,04,990.04
2016,03,13,11,05,990.01
2016,03,13,11,06,989.91
2016,03,13,11,07,989.88
2016,03,13,11,08,989.91
2016,03,13,11,09,989.98
2016,03,13,11,10,989.94
2016,03,13,11,11,989.98
2016,03,13,11,12,989.91
2016,03,13,11,13,989.98
2016,03,13,11,14,989.84
2016,03,13,11,15,989.84
2016,03,13,11,16,989.88
2016,03,13,11,17,989.88
2016,03,13,11,18,989.84
2016,03,13,11,19,989.77
2016,03,13,11,20,989.74
2016,03,13,11,21,989.74
2016,03,13,11,22,989.71
2016,03,13,11,23,989.77
2016,03,13,11,24,989.64
2016,03,13,11,25,989.71
2016,03,13,11,26,989.67
2016,03,13,11,27,989.64
2016,03,13,11,28,989.64
2016,03,13,11,29,989.60
2016,03,13,11,30,989.64
2016,03,13,11,31,989.67
2016,03,13,11,32,989.71
2016,03,13,11,33,989.66
2016,03,13,11,34,989.54
2016,03,13,11,35,989.57
2016,03,13,11,36,989.54
2016,03,13,11,37,989.50
2016,03,13,11,38,989.44
2016,03,13,11,39,989.44
2016,03,13,11,40,989.47
2016,03,13,11,41,989.44
2016,03,13,11,42,989.54
2016,03,13,11,43,989.40
2016,03,13,11,44,989.44
2016,03,13,11,45,989.40
2016,03,13,11,46,989.37
2016,03,13,11,47,989.40
2016,03,13,11,48,989.44
2016,03,13,11,49,989.37
2016,03,13,11,50,989.37
2016,03,13,11,51,989.33
2016,03,13,11,52,989.30
2016,03,13,11,53,989.20
2016,03,13,11,54,989.30
2016,03,13,11,55,989.23
2016,03,13,11,56,989.27
2016,03,13,11,57,989.27
2016,03,13,11,58,989.20
2016,03,13,11,59,989.11
2016,03,13,12,00,989.23
2016,03,13,12,01,989.17
2016,03,13,12,02,989.30
2016,03,13,12,03,989.16
2016,03,13,12,04,989.20
2016,03,13,12,05,989.13
2016,03,13,12,06,989.16
2016,03,13,12,07,989.10
2016,03,13,12,08,989.13
2016,03,13,12,09,989.10
2016,03,13,12,10,989.13
2016,03,13,12,11,989.06
2016,03,13,12,12,989.06
2016,03,13,12,13,989.06
2016,03,13,12,14,989.03
2016,03,13,12,15,988.99
2016,03,13,12,16,988.87
2016,03,13,12,17,989.06
2016,03,13,12,18,988.89
2016,03,13,12,19,988.93
2016,03,13,12,20,988.93
2016,03,13,12,21,988.89
2016,03,13,12,22,988.96
2016,03,13,12,23,988.96
2016,03,13,12,24,988.79
2016,03,13,12,25,988.86
2016,03,13,12,26,988.79
2016,03,13,12,27,988.69
2016,03,13,12,28,988.72
2016,03,13,12,29,988.72
2016,03,13,12,30,988.69
2016,03,13,12,31,988.69
2016,03,13,12,32,988.69
2016,03,13,12,33,988.62
2016,03,13,12,34,988.59
2016,03,13,12,35,988.52
2016,03,13,12,36,988.49
2016,03,13,12,37,988.42
2016,03,13,12,38,988.51
2016,03,13,12,39,988.35
2016,03,13,12,40,988.39
2016,03,13,12,41,988.42
2016,03,13,12,42,988.22
2016,03,13,12,43,988.22
2016,03,13,12,44,988.15
2016,03,13,12,45,988.15
2016,03,13,12,46,988.05
2016,03,13,12,47,987.95
2016,03,13,12,48,987.88
2016,03,13,12,49,987.91
2016,03,13,12,50,987.83
2016,03,13,12,51,987.67
2016,03,13,12,52,987.67
2016,03,13,12,53,987.67
2016,03,13,12,54,987.66
2016,03,13,12,55,987.47
2016,03,13,12,56,987.44
2016,03,13,12,57,987.44
2016,03,13,12,58,987.34
2016,03,13,12,59,987.30
2016,03,13,13,00,987.20
2016,03,13,13,01,987.17
2016,03,13,13,02,987.06
2016,03,13,13,03,987.00
2016,03,13,13,04,987.00
2016,03,13,13,05,986.99
2016,03,13,13,06,986.86
2016,03,13,13,07,986.90
2016,03,13,13,08,986.83
2016,03,13,13,09,986.69
2016,03,13,13,10,986.66
2016,03,13,13,11,986.56
2016,03,13,13,12,986.56
2016,03,13,13,13,986.66
2016,03,13,13,14,986.55
2016,03,13,13,15,986.42
2016,03,13,13,16,986.61
2016,03,13,13,17,986.46
2016,03,13,13,18,986.58
2016,03,13,13,19,986.42
2016,03,13,13,20,986.32
2016,03,13,13,21,986.31
2016,03,13,13,22,986.05
2016,03,13,13,23,986.05
2016,03,13,13,24,986.02
2016,03,13,13,25,985.91
2016,03,13,13,26,985.85
2016,03,13,13,27,985.81
2016,03,13,13,28,985.71
2016,03,13,13,29,985.74
2016,03,13,13,30,985.63
2016,03,13,13,31,985.47
2016,03,13,13,32,985.51
2016,03,13,13,33,985.44
2016,03,13,13,34,985.44
2016,03,13,13,35,985.41
2016,03,13,13,36,985.44
2016,03,13,13,37,985.30
2016,03,13,13,38,985.29
2016,03,13,13,39,985.13
2016,03,13,13,40,985.07
2016,03,13,13,41,985.07
2016,03,13,13,42,985.13
2016,03,13,13,43,985.03
2016,03,13,13,44,984.90
2016,03,13,13,45,984.83
2016,03,13,13,46,984.83
2016,03,13,13,47,984.80
2016,03,13,13,48,984.83
2016,03,13,13,49,984.73
2016,03,13,13,50,984.63
2016,03,13,13,51,984.68
2016,03,13,13,52,984.53
2016,03,13,13,53,984.56
2016,03,13,13,54,984.39
2016,03,13,13,55,984.39
2016,03,13,13,56,984.32
2016,03,13,13,57,984.39
2016,03,13,13,58,984.25
2016,03,13,13,59,984.22
2016,03,13,14,00,984.12
2016,03,13,14,01,984.08
2016,03,13,14,02,984.02
2016,03,13,14,03,983.92
2016,03,13,14,04,983.97
2016,03,13,14,05,983.85
2016,03,13,14,06,983.78
2016,03,13,14,07,983.71
2016,03,13,14,08,983.71
2016,03,13,14,09,983.78
2016,03,13,14,10,983.71
2016,03,13,14,11,983.67
2016,03,13,14,12,983.58
2016,03,13,14,13,983.51
2016,03,13,14,14,983.41
2016,03,13,14,15,983.48
2016,03,13,14,16,983.44
2016,03,13,14,17,983.48
2016,03,13,14,18,983.41
2016,03,13,14,19,983.44
2016,03,13,14,20,983.37
2016,03,13,14,21,983.41
2016,03,13,14,22,983.31
2016,03,13,14,23,983.37
2016,03,13,14,24,983.43
2016,03,13,14,25,983.24
2016,03,13,14,26,983.17
2016,03,13,14,27,983.24
2016,03,13,14,28,983.10
2016,03,13,14,29,983.10
2016,03,13,14,30,983.17
2016,03,13,14,31,982.97
2016,03,13,14,32,982.97
2016,03,13,14,33,982.87
2016,03,13,14,34,982.90
2016,03,13,14,35,982.83
2016,03,13,14,36,982.73
2016,03,13,14,37,982.70
2016,03,13,14,38,982.76
2016,03,13,14,39,982.70
2016,03,13,14,40,982.62
2016,03,13,14,41,982.43
2016,03,13,14,42,982.43
2016,03,13,14,43,982.32
2016,03,13,14,44,982.35
2016,03,13,14,45,982.22
2016,03,13,14,46,982.22
2016,03,13,14,47,982.18
2016,03,13,14,48,982.05
2016,03,13,14,49,982.04
2016,03,13,14,50,981.92
2016,03,13,14,51,981.92
2016,03,13,14,52,982.02
2016,03,13,14,53,981.94
2016,03,13,14,54,981.81
2016,03,13,14,55,981.61
2016,03,13,14,56,981.68
2016,03,13,14,57,981.65
2016,03,13,14,58,981.61
2016,03,13,14,59,981.64
2016,03,13,15,00,981.51
2016,03,13,15,01,981.64
2016,03,13,15,02,981.48
2016,03,13,15,03,981.41
2016,03,13,15,04,981.42
2016,03,13,15,05,981.61
2016,03,13,15,06,981.49
2016,03,13,15,07,981.65
2016,03,13,15,08,981.58
2016,03,13,15,09,981.61
2016,03,13,15,10,981.58
2016,03,13,15,11,981.60
2016,03,13,15,12,981.48
2016,03,13,15,13,981.51
2016,03,13,15,14,981.55
2016,03,13,15,15,981.58
2016,03,13,15,16,981.58
2016,03,13,15,17,981.51
2016,03,13,15,18,981.48
2016,03,13,15,19,981.55
2016,03,13,15,20,981.65
2016,03,13,15,21,981.58
2016,03,13,15,22,981.68
2016,03,13,15,23,981.69
2016,03,13,15,24,981.82
2016,03,13,15,25,981.88
2016,03,13,15,26,981.85
2016,03,13,15,27,981.95
2016,03,13,15,28,981.92
2016,03,13,15,29,982.05
2016,03,13,15,30,982.02
2016,03,13,15,31,982.02
2016,03,13,15,32,981.99
2016,03,13,15,33,982.02
2016,03,13,15,34,982.02
2016,03,13,15,35,981.99
2016,03,13,15,36,981.99
2016,03,13,15,37,982.02
2016,03,13,15,38,982.05
2016,03,13,15,39,982.05
2016,03,13,15,40,981.99
2016,03,13,15,41,982.02
2016,03,13,15,42,981.99
2016,03,13,15,43,982.05
2016,03,13,15,44,982.15
2016,03,13,15,45,982.12
2016,03,13,15,46,982.09
2016,03,13,15,47,982.15
2016,03,13,15,48,982.16
2016,03,13,15,49,982.32
2016,03,13,15,50,982.26
2016,03,13,15,51,982.39
2016,03,13,15,52,982.36
2016,03,13,15,53,982.39
2016,03,13,15,54,982.32
2016,03,13,15,55,982.32
2016,03,13,15,56,982.22
2016,03,13,15,57,982.22
2016,03,13,15,58,982.22
2016,03,13,15,59,982.15
2016,03,13,16,00,982.15
2016,03,13,16,01,982.26
2016,03,13,16,02,982.26
2016,03,13,16,03,982.32
2016,03,13,16,04,982.26
2016,03,13,16,05,982.22
2016,03,13,16,06,982.29
2016,03,13,16,07,982.39
2016,03,13,16,08,982.43
2016,03,13,16,09,982.29
2016,03,13,16,10,982.29
2016,03,13,16,11,982.29
2016,03,13,16,12,982.39
2016,03,13,16,13,982.43
2016,03,13,16,14,982.49
2016,03,13,16,15,982.49
2016,03,13,16,16,982.53
2016,03,13,16,17,982.53
2016,03,13,16,18,982.56
2016,03,13,16,19,982.63
2016,03,13,16,20,982.70
2016,03,13,16,21,982.73
2016,03,13,16,22,982.80
2016,03,13,16,23,982.87
2016,03,13,16,24,982.80
2016,03,13,16,25,982.90
2016,03,13,16,26,982.93
2016,03,13,16,27,983.01
2016,03,13,16,28,983.17
2016,03,13,16,29,983.21
2016,03,13,16,30,983.31
2016,03,13,16,31,983.31
2016,03,13,16,32,983.37
2016,03,13,16,33,983.44
2016,03,13,16,34,983.41
2016,03,13,16,35,983.44
2016,03,13,16,36,983.54
2016,03,13,16,37,983.51
2016,03,13,16,38,983.61
2016,03,13,16,39,983.54
2016,03,13,16,40,983.54
2016,03,13,16,41,983.61
2016,03,13,16,42,983.54
2016,03,13,16,43,983.64
2016,03,13,16,44,983.61
2016,03,13,16,45,983.64
2016,03,13,16,46,983.68
2016,03,13,16,47,983.71
2016,03,13,16,48,983.80
2016,03,13,16,49,983.69
2016,03,13,16,50,983.81
2016,03,13,16,51,983.81
2016,03,13,16,52,983.85
2016,03,13,16,53,983.78
2016,03,13,16,54,983.81
2016,03,13,16,55,983.81
2016,03,13,16,56,983.95
2016,03,13,16,57,983.95
2016,03,13,16,58,983.95
2016,03,13,16,59,984.08
2016,03,13,17,00,984.12
2016,03,13,17,01,984.16
2016,03,13,17,02,984.29
2016,03,13,17,03,984.36
2016,03,13,17,04,984.39
2016,03,13,17,05,984.39
2016,03,13,17,06,984.46
2016,03,13,17,07,984.63
2016,03,13,17,08,984.56
2016,03,13,17,09,984.73
2016,03,13,17,10,984.73
2016,03,13,17,11,984.63
2016,03,13,17,12,984.73
2016,03,13,17,13,984.93
2016,03,13,17,14,985.03
2016,03,13,17,15,984.93
2016,03,13,17,16,985.10
2016,03,13,17,17,985.20
2016,03,13,17,18,985.24
2016,03,13,17,19,985.34
2016,03,13,17,20,985.42
2016,03,13,17,21,985.57
2016,03,13,17,22,985.65
2016,03,13,17,25,985.74
2016,03,13,17,26,985.69
2016,03,13,17,27,985.76
2016,03,13,17,28,985.87